Track STARLINK-31501 now! 10-day predictions STARLINK-31501 is classified as:
1 59359U 24060M 24325.74517938 -.00000262 00000-0 10199-5 0 9999 2 59359 43.0077 69.0482 0002401 287.9235 72.1360 15.40690480 37439